Location: Sabalos
(43.2860°N, 0.1414°E)
Time: 10:53:31
(UTC+00:00)

Cosmos-2242 - Pass Details

Date: 05 July 2020
Orbit: 592 x 616 km, 82.5° (Epoch: 05 August)

Event Time Altitude Azimuth Distance (km) Brightness Sun altitude
Rises 20:49:11 0° 356° (N) 2,869 7.3 -10.3°
Reaches altitude 10° 20:51:27 10° 1° (N) 1,965 6.3 -10.6°
Maximum altitude 20:55:42 53° 79° (ENE) 752 3.3 -11.1°
Enters shadow 20:59:05 16° 153° (SSE) 1,631 4.6 -11.5°
